sat.trackr.live / text

‹ back to catalog

STARLINK-37504

NORAD 68913 · 2026-097U

PAYLOAD ACTIVE UNKNOWN

§ Identity

Operator
Country
US
Launch date
2026-04-30
Launch site
AFWTR
Launch vehicle
Mass (kg)
RCS (m²)

Purposes: comms

External: N2YO · Heavens-Above · Gunter

§ Orbital elements

Epoch: 2026-05-25T02:38:06.722592Z

Period
92.95 min
Inclination
97.2855°
Eccentricity
0.0000370
Mean motion
15.49244337 rev/d
Perigee alt
418.7 km
Apogee alt
419.2 km
Semi-major
6,797.1 km
B*
8.0913e-4
RAAN
340.8647°
Arg perigee
103.1476°
Mean anomaly
256.9817°
Rev number
394

§ Raw data

STARLINK-375041 68913U 26097U   26145.10980003  .00044248  00000+0  80913-3 0  99952 68913  97.2855 340.8647 0000370 103.1476 256.9817 15.49244337  3945

JSON: /api/v1/satellites/68913 · /tle

For live sub-satellite position, see the globe view (requires WebGL).

§ Visibility from observer

Set your observer location to see the next 7 days of passes ≥ 10°. The values pass through the URL so the page stays shareable.

No JS? Fill the form by hand. The geolocation button needs JavaScript.